[[{"header":{"parameterUnit":"m.s-1","parameterCategory":1,"la1":30.2991,"la2":30.254,"lo1":-89.0895,"lo2":-89.0444,"dx":0.0017,"dy":0.0017,"nx":28,"ny":28,"refTime":"2022-11-03T21:00:00:Z","depth":0,"parameterNumber":2,"parameterNumberName":"U-component_of_WINDS"},"data":[0,0,0,0,0,0,0,0,0,0,0,0,0,0,0,0,0,0,0,0,0,0,0,0,0,0,0,0,0,0,0,0,0,0,0,0,0,0,0,0,0,0,0,0,0,0,0,0,0,0,0,0,0,0,0,0,0,0,-3.9747,-3.9748,0,-3.9836,-3.9837,-3.9838,-3.9841,-3.984,-3.9839,-3.9838,-3.9926,-3.9929,-3.9932,0,0,0,0,0,0,0,0,0,0,0,0,0,-3.9577,-3.958,-3.9747,-3.9748,-3.9749,-3.9835,-3.9837,-3.9838,-3.9841,-3.984,-3.9838,-3.9837,-3.9924,-3.9928,-3.9932,0,0,0,0,0,0,0,0,0,0,0,0,0,-3.9657,-3.9581,-3.9746,-3.9761,-3.9763,-3.9835,-3.9837,-3.9838,-3.9841,-3.984,-3.9838,-3.9837,-3.9923,-3.9928,-3.9933,-3.9995,0,0,-3.9948,-3.995,0,0,0,0,0,0,0,0,-3.9652,-3.9663,-3.9758,-3.976,-3.9763,-3.9826,-3.9809,-3.9891,-3.9842,-3.9812,-3.9838,-3.9836,-3.9893,-3.9901,-3.9921,-4.0,-4.0003,-3.9949,-3.9952,-3.9954,-3.9955,0,0,0,0,0,0,0,-3.9647,-3.9659,-3.9782,-3.9759,-3.9762,-3.9762,-3.9772,-3.9825,-3.986,-3.9814,-3.9815,-3.9825,-3.9894,-3.9916,-3.9923,-4.0005,-3.9948,-3.9953,-3.9956,-3.9958,-4.014,-4.0141,0,0,0,0,0,0,-3.9639,-3.9655,-3.9779,-3.9784,-3.9703,-3.9767,-3.9777,-3.9807,-3.986,-3.9866,-3.9826,-3.9825,-3.9908,-3.9917,-3.9926,-4.0003,-3.9954,-3.9958,-3.9961,-4.0138,-4.014,-4.0142,0,0,0,0,0,0,-3.9635,-3.965,-3.9775,-3.972,-3.9736,-3.9771,-3.9804,-3.981,-3.9831,-3.9869,-3.9875,-3.9842,-3.9907,-3.9919,-3.9979,-4.0006,-3.9961,-3.9965,-4.0136,-4.0139,-4.0141,-4.0156,0,0,0,0,0,0,-3.963,-3.9648,-3.9673,-3.972,-3.9739,-3.9827,-3.9806,-3.9812,-3.984,-3.9839,-3.9885,-3.9891,-3.9907,-3.9971,-3.9983,-4.0012,-3.9969,-4.0133,-4.0137,-4.014,-4.0153,-4.0159,-4.0164,0,0,0,0,0,-3.9624,-3.9673,-3.9674,-3.9689,-3.977,-3.9829,-3.9839,-3.9857,-3.9842,-3.9867,-3.9892,-3.989,-4.0001,-3.9977,-3.9991,-4.0021,-4.0132,-4.0136,-4.014,-4.0151,-4.0158,-4.0164,0,0,0,0,0,0,-3.9626,-3.9679,-3.9681,-3.9747,-3.9784,-3.9829,-3.986,-3.9864,-3.9904,-3.9901,-3.9921,-3.9931,-3.999,-4.0012,-3.9984,-4.0085,-4.0065,-4.0072,-4.0068,-4.0075,-4.008,-4.0073,-3.9973,0,0,0,0,0,-3.9635,-3.9679,-3.9722,-3.9776,-3.9794,-3.9824,-3.985,-3.9861,-3.9899,-3.9914,-3.9943,-3.9979,-4.0022,-4.005,-4.0092,-4.0157,-4.0167,-4.0185,-4.019,-4.0194,-4.02,-4.0236,-4.0244,-4.0156,-4.0156,-4.0156,0,0,-3.9652,-3.9686,-3.9713,-3.9777,-3.9807,-3.9851,-3.9837,-3.9884,-3.9917,-3.9921,-3.9979,-4.0002,-4.0044,-4.0106,-4.0135,-4.0126,-4.0227,-4.02,-4.0203,-4.0206,-4.0241,-4.0249,-4.0257,-4.0158,-4.0158,-4.0157,0,0,-3.9706,-3.9737,-3.9785,-3.9815,-3.9861,-3.9881,-3.9892,-3.9938,-3.9954,-4.0013,-4.0017,-4.0056,-4.013,-4.0159,-4.0184,-4.0251,-4.0251,-4.0264,-4.0291,-4.0326,-4.0333,-4.0339,-4.0363,-4.0371,-4.027,-4.027,-4.027,0,-3.9721,-3.9789,-3.9809,-3.9857,-3.9885,-3.9893,-3.9941,-3.9969,-4.0025,-4.0044,-4.0034,-4.0127,-4.0156,-4.0226,-4.0242,-4.0262,-4.0275,-4.0258,-4.0331,-4.0337,-4.0343,-4.0366,-4.0374,-4.0271,-4.0271,-4.0271,-4.0271,0,-3.9805,-3.9852,-3.9886,-3.9941,-3.9973,-4.0021,-4.0048,-4.0078,-4.0087,-4.0107,-4.0168,-4.0203,-4.0252,-4.0269,-4.0278,-4.0341,-4.0333,-4.0327,-4.0306,-4.0353,-4.0374,-4.0383,-4.0273,-4.0272,-4.0272,-4.0272,0,0,-3.9861,-3.9929,-3.9941,-3.9966,-4.0018,-4.0054,-4.0102,-4.0151,-4.0176,-4.0216,-4.0256,-4.0319,-4.0314,-4.0342,-4.0354,-4.0385,-4.0435,-4.0374,-4.0375,-4.0383,-4.0506,-4.051,-4.0519,-4.0436,-4.0438,-4.0439,-4.0502,0,-3.992,-4.0007,-4.0027,-4.0102,-4.0145,-4.0154,-4.0196,-4.0231,-4.0253,-4.0292,-4.0315,-4.0359,-4.0349,-4.0366,-4.0397,-4.0422,-4.0459,-4.0418,-4.0473,-4.0474,-4.0461,-4.0531,-4.0535,-4.0593,-4.0511,-4.0512,-4.0513,0,-4.0,-4.0042,-4.0121,-4.0168,-4.0187,-4.0224,-4.0271,-4.0309,-4.035,-4.0363,-4.0395,-4.0405,-4.0455,-4.0433,-4.0502,-4.0473,-4.0497,-4.0513,-4.0516,-4.052,-4.0495,-4.0536,-4.0612,-4.062,-4.0527,-4.0526,-4.0525,0,-4.0032,-4.0109,-4.0166,-4.0188,-4.0243,-4.027,-4.0294,-4.0333,-4.0362,-4.0403,-4.0421,-4.0468,-4.0492,-4.0528,-4.0549,-4.0531,-4.0616,-4.0596,-4.0627,-4.0627,-4.0643,-4.0642,-4.0723,-4.0661,-4.0661,-4.0661,-4.066,0,-4.0095,-4.0143,-4.0181,-4.0216,-4.027,-4.0293,-4.0345,-4.0369,-4.0405,-4.0444,-4.0454,-4.0491,-4.0517,-4.0557,-4.0574,-4.0628,-4.064,-4.0651,-4.0655,-4.065,-4.0648,-4.0664,-4.0661,-4.0663,-4.0662,-4.0662,-4.0661,0,-4.014,-4.0168,-4.023,-4.0279,-4.0292,-4.0329,-4.037,-4.0404,-4.0426,-4.0476,-4.0489,-4.0523,-4.0571,-4.0596,-4.0656,-4.0667,-4.0728,-4.073,-4.0714,-4.0716,-4.0745,-4.0742,-4.0838,-4.0852,-4.0782,-4.0782,-4.0783,0,-4.0178,-4.0215,-4.0267,-4.0295,-4.032,-4.0365,-4.0394,-4.0418,-4.0449,-4.0499,-4.0527,-4.0575,-4.0615,-4.0692,-4.0721,-4.0767,-4.0769,-4.08,-4.0776,-4.077,-4.0769,-4.0766,-4.077,-4.0804,-4.0804,-4.0805,-4.0805,0,-4.0242,-4.0254,-4.0297,-4.0345,-4.038,-4.0419,-4.0457,-4.0479,-4.0509,-4.0543,-4.0592,-4.0624,-4.0685,-4.0733,-4.0782,-4.0806,-4.0811,-4.0813,-4.0823,-4.0817,-4.0806,-4.0812,-4.0725,-4.081,-4.081,-4.0809,-4.0809,-4.0809,-4.0284,-4.0317,-4.036,-4.0407,-4.0439,-4.0474,-4.0509,-4.0536,-4.0578,-4.0631,-4.0643,-4.0695,-4.0735,-4.0801,-4.0827,-4.0867,-4.0861,-4.0875,-4.0878,-4.0881,-4.0882,-4.0801,-4.0876,-4.0876,-4.0876,-4.0876,-4.0876,0,-4.0348,-4.0376,-4.0419,-4.0473,-4.051,-4.0513,-4.0556,-4.0587,-4.0633,-4.0671,-4.0711,-4.0768,-4.0815,-4.0849,-4.0897,-4.0923,-4.0926,-4.0935,-4.0932,-4.0938,-4.0885,-4.0872,-4.0931,-4.0931,-4.0931,-4.0931,-4.0931,-4.0931,-4.0385,-4.0442,-4.046,-4.0532,-4.056,-4.0612,-4.0636,-4.0669,-4.0699,-4.0763,-4.0802,-4.0825,-4.0861,-4.0912,-4.0955,-4.0964,-4.098,-4.0988,-4.0997,-4.0947,-4.0941,-4.0936,-4.0923,-4.0992,-4.0992,-4.1046,-4.1047,-4.1047]},{"header":{"parameterUnit":"m.s-1","parameterCategory":1,"la1":30.2991,"la2":30.254,"lo1":-89.0895,"lo2":-89.0444,"dx":0.0017,"dy":0.0017,"nx":28,"ny":28,"refTime":"2022-11-03T21:00:00:Z","depth":0,"parameterNumber":3,"parameterNumberName":"V-component_of_WINDS"},"data":[0,0,0,0,0,0,0,0,0,0,0,0,0,0,0,0,0,0,0,0,0,0,0,0,0,0,0,0,0,0,0,0,0,0,0,0,0,0,0,0,0,0,0,0,0,0,0,0,0,0,0,0,0,0,0,0,0,0,6.109,6.1091,0,6.1232,6.1233,6.1235,6.1207,6.1205,6.1202,6.12,6.1339,6.1345,6.1351,0,0,0,0,0,0,0,0,0,0,0,0,0,6.0789,6.0795,6.1089,6.1091,6.1093,6.1232,6.1234,6.1235,6.1208,6.1205,6.1202,6.1199,6.1337,6.1344,6.1352,0,0,0,0,0,0,0,0,0,0,0,0,0,6.0924,6.0797,6.1089,6.1096,6.1098,6.1231,6.1234,6.1236,6.1208,6.1205,6.1201,6.1197,6.1335,6.1344,6.1353,6.1486,0,0,6.1381,6.1385,0,0,0,0,0,0,0,0,6.0917,6.0935,6.1093,6.1096,6.1098,6.1198,6.1179,6.132,6.1209,6.1166,6.12,6.1195,6.1295,6.1307,6.1342,6.1492,6.1498,6.1381,6.1387,6.1391,6.1393,0,0,0,0,0,0,0,6.0907,6.0929,6.1146,6.1096,6.1099,6.1091,6.1106,6.1205,6.125,6.117,6.1168,6.1186,6.1295,6.1333,6.1345,6.15,6.1381,6.1389,6.1395,6.1398,6.1769,6.1773,0,0,0,0,0,0,6.0896,6.0921,6.1141,6.115,6.0996,6.1099,6.1116,6.117,6.1249,6.1258,6.1189,6.1184,6.1319,6.1334,6.135,6.1513,6.1391,6.1399,6.1405,6.1765,6.177,6.1775,0,0,0,0,0,0,6.089,6.0916,6.1135,6.1035,6.1063,6.1108,6.1169,6.1175,6.1212,6.1264,6.1271,6.122,6.1317,6.1337,6.1453,6.1517,6.1403,6.1412,6.176,6.1766,6.1772,6.1838,0,0,0,0,0,0,6.0881,6.0914,6.0966,6.1037,6.1068,6.1238,6.1173,6.118,6.1229,6.1224,6.1294,6.1302,6.1316,6.144,6.1462,6.1528,6.1419,6.1754,6.1763,6.177,6.1831,6.1846,6.186,0,0,0,0,0,6.0871,6.0977,6.0969,6.0995,6.1134,6.1242,6.1259,6.1275,6.1234,6.1287,6.132,6.13,6.1506,6.1452,6.1477,6.1546,6.175,6.176,6.177,6.1824,6.1843,6.1859,0,0,0,0,0,0,6.091,6.0986,6.0978,6.1111,6.117,6.1237,6.1303,6.1294,6.1364,6.1356,6.137,6.1386,6.1505,6.1537,6.1475,6.168,6.1622,6.1638,6.1655,6.1674,6.1688,6.1678,6.1426,0,0,0,0,0,6.0934,6.1017,6.1078,6.1189,6.122,6.1257,6.1304,6.1311,6.1372,6.1396,6.1438,6.1496,6.1575,6.1626,6.17,6.1835,6.185,6.1895,6.1909,6.1921,6.1934,6.201,6.2031,6.1807,6.1807,6.1807,0,0,6.0985,6.1037,6.1087,6.1199,6.1246,6.133,6.1278,6.1368,6.1431,6.1409,6.1523,6.1555,6.1622,6.1749,6.1806,6.1779,6.2,6.1934,6.1943,6.195,6.2022,6.2043,6.2062,6.1814,6.1813,6.1811,0,0,6.112,6.1168,6.1267,6.1316,6.1389,6.1413,6.1436,6.1505,6.1527,6.1642,6.1628,6.1701,6.1835,6.1884,6.1926,6.2083,6.2068,6.2107,6.2183,6.2256,6.2274,6.2289,6.2347,6.2367,6.212,6.212,6.212,0,6.1173,6.1302,6.1318,6.1412,6.1461,6.1448,6.1548,6.1594,6.1687,6.1721,6.1689,6.1859,6.1902,6.2041,6.208,6.2114,6.2142,6.2099,6.227,6.2286,6.2301,6.2356,6.2377,6.2124,6.2124,6.2123,6.2123,0,6.1364,6.1453,6.1524,6.1617,6.1674,6.177,6.18,6.1856,6.1859,6.1886,6.2003,6.2055,6.2141,6.2175,6.2176,6.2314,6.2295,6.2267,6.2209,6.2326,6.2378,6.2399,6.213,6.2129,6.2127,6.2126,0,0,6.1527,6.163,6.1656,6.1699,6.178,6.1848,6.1944,6.2031,6.2079,6.2143,6.2224,6.2339,6.2314,6.2362,6.2369,6.2433,6.2556,6.2397,6.2399,6.2426,6.2713,6.2735,6.2759,6.2546,6.255,6.2554,6.2708,0,6.1671,6.1842,6.1861,6.2013,6.2096,6.2087,6.217,6.2228,6.2256,6.2329,6.2359,6.2441,6.2401,6.2431,6.2494,6.2528,6.2614,6.2517,6.2621,6.2624,6.2606,6.2785,6.2808,6.2951,6.2728,6.2731,6.2734,0,6.1862,6.1936,6.2097,6.2169,6.2204,6.2279,6.2361,6.2432,6.2497,6.2513,6.2568,6.2568,6.2665,6.2604,6.2739,6.2672,6.2716,6.2739,6.2745,6.2756,6.2687,6.2802,6.2997,6.3019,6.2765,6.2763,6.2761,0,6.1967,6.2106,6.2221,6.2258,6.2344,6.2397,6.2435,6.2497,6.2548,6.2619,6.2653,6.2733,6.2778,6.2839,6.286,6.2814,6.2995,6.2935,6.3011,6.301,6.3049,6.3047,6.3255,6.3076,6.3076,6.3075,6.3075,0,6.2126,6.2226,6.227,6.2341,6.2452,6.2472,6.2581,6.2616,6.2672,6.2749,6.2744,6.2815,6.2838,6.2914,6.293,6.304,6.306,6.3075,6.3078,6.3076,6.3075,6.3105,6.3096,6.3081,6.308,6.3079,6.3078,0,6.2262,6.2296,6.2421,6.2493,6.2514,6.2593,6.2653,6.2722,6.2749,6.2847,6.2871,6.2914,6.3003,6.303,6.3136,6.3147,6.3276,6.327,6.3255,6.3256,6.3331,6.3324,6.3567,6.3601,6.3398,6.34,6.3402,0,6.2362,6.2439,6.2521,6.2574,6.2614,6.2698,6.2752,6.2775,6.2831,6.2912,6.2971,6.3059,6.3132,6.3274,6.3314,6.3395,6.3391,6.3471,6.3403,6.34,6.3394,6.339,6.3398,6.3484,6.3486,6.3488,6.3489,0,6.2537,6.2551,6.263,6.2716,6.2781,6.2849,6.2914,6.2957,6.2988,6.3051,6.3144,6.32,6.3311,6.3399,6.3482,6.3519,6.351,6.351,6.3533,6.3532,6.3521,6.3529,6.3291,6.3505,6.3503,6.3502,6.3501,6.35,6.266,6.2728,6.2798,6.2886,6.2938,6.3,6.3069,6.3106,6.3185,6.3278,6.3286,6.3386,6.3451,6.3562,6.3604,6.3681,6.3658,6.369,6.3698,6.3706,6.3713,6.3508,6.3696,6.3696,6.3695,6.3695,6.3695,0,6.2836,6.288,6.2962,6.3055,6.3125,6.3113,6.3185,6.3243,6.3333,6.3395,6.3467,6.3574,6.366,6.3707,6.3793,6.3846,6.3844,6.3868,6.3865,6.3874,6.3728,6.3701,6.3868,6.3868,6.3868,6.3868,6.3868,6.3868,6.2936,6.3052,6.3074,6.3217,6.326,6.3361,6.3403,6.346,6.351,6.363,6.3703,6.3734,6.3791,6.3881,6.3959,6.397,6.4003,6.4029,6.4039,6.3901,6.3884,6.3867,6.3842,6.4036,6.4036,6.4178,6.4179,6.418]}]]